This demonstration page uses our WeatherBlox Daily Observations layout. Learn more.

Left ArrowRight Arrow

Hourly Observations for August 1, 2021

Temp ( °F °C ) Dew Point ( °F °C ) Humidity (%) Winds ( mph kmh ) Pressure ( in mb ) Visibility ( mi km ) Precip ( " mm )
12:15 am 00:15 Clear 72 22 64 18 78 78 N N/A 29.95 1014 10 16 N/A
12:35 am 00:35 Clear 72 22 64 18 78 78 S 3 6 29.94 1014 10 16 N/A
12:55 am 00:55 Partly Cloudy with Light Rain 72 22 64 18 78 78 SSW 3 6 29.93 1013 10 16 N/A
1:15 am 01:15 Mostly Cloudy with Light Rain 70 21 64 18 83 83 SSW 3 6 29.92 1013 10 16 N/A
1:35 am 01:35 Partly Cloudy 70 21 64 18 83 83 S 5 7 29.92 1013 10 16 N/A
1:55 am 01:55 Mostly Cloudy 70 21 64 18 83 83 N N/A 29.92 1013 10 16 N/A
2:15 am 02:15 Partly Cloudy 70 21 64 18 83 83 S 3 6 29.91 1013 10 16 N/A
2:35 am 02:35 Mostly Cloudy 70 21 64 18 83 83 N N/A 29.91 1013 10 16 N/A
2:55 am 02:55 Cloudy 68 20 64 18 88 88 S 5 7 29.90 1013 10 16 N/A
3:15 am 03:15 Mostly Cloudy 68 20 64 18 88 88 N N/A 29.90 1013 10 16 N/A
3:35 am 03:35 Cloudy 68 20 64 18 88 88 SSW 3 6 29.90 1013 10 16 N/A
3:55 am 03:55 Cloudy 66 19 64 18 94 94 N N/A 29.91 1013 10 16 N/A
4:15 am 04:15 Mostly Cloudy 66 19 64 18 94 94 N N/A 29.91 1013 10 16 N/A
4:35 am 04:35 Mostly Cloudy 66 19 64 18 94 94 N N/A 29.91 1013 10 16 N/A
4:55 am 04:55 Mostly Cloudy 66 19 64 18 94 94 N N/A 29.91 1013 10 16 N/A
5:15 am 05:15 Cloudy 64 18 64 18 100 100 N N/A 29.90 1013 10 16 N/A
5:35 am 05:35 Cloudy 64 18 64 18 100 100 N N/A 29.89 1012 10 16 N/A
5:55 am 05:55 Cloudy with Light Rain 64 18 64 18 100 100 N N/A 29.89 1012 10 16 N/A
10:15 am 10:15 Cloudy 68 20 64 18 88 88 WSW 6 9 29.88 1012 10 16 N/A
10:35 am 10:35 Cloudy 68 20 64 18 88 88 W 6 9 29.89 1012 10 16 N/A
10:55 am 10:55 Cloudy with Heavy Rain 68 20 64 18 88 88 W 6 9 29.89 1012 5 8 0.02 0.51
11:15 am 11:15 Cloudy with Rain 64 18 64 18 100 100 N N/A 29.89 1012 3 5 0.08 2.03
11:35 am 11:35 Cloudy 64 18 64 18 100 100 N N/A 29.89 1012 7 11 0.09 2.29
11:55 am 11:55 Cloudy 64 18 64 18 100 100 N N/A 29.89 1012 10 16 0.09 2.29
12:15 pm 12:15 Cloudy with Heavy Rain 64 18 63 17 94 94 NNW 9 15 29.89 1012 5 8 0.02 0.51
12:35 pm 12:35 Cloudy with Rain 63 17 61 16 94 94 NW 5 7 29.90 1012 4 6 0.08 2.03
12:55 pm 12:55 Cloudy with Drizzle 63 17 63 17 100 100 N N/A 29.90 1012 7 11 0.08 2.03
1:15 pm 13:15 Cloudy 64 18 63 17 94 94 N N/A 29.89 1012 10 16 N/A
1:35 pm 13:35 Cloudy 64 18 63 17 94 94 N N/A 29.89 1012 10 16 N/A
1:55 pm 13:55 Cloudy 66 19 63 17 88 88 W 3 6 29.88 1012 10 16 N/A
2:15 pm 14:15 Cloudy 70 21 63 17 78 78 N N/A 29.87 1012 10 16 N/A
2:35 pm 14:35 Mostly Cloudy 72 22 63 17 73 73 N N/A 29.86 1011 10 16 N/A
2:55 pm 14:55 Mostly Cloudy 72 22 61 16 69 69 N N/A 29.85 1011 10 16 N/A
3:15 pm 15:15 Cloudy 73 23 63 17 69 69 N N/A 29.85 1011 10 16 N/A
3:35 pm 15:35 Cloudy 73 23 63 17 69 69 N N/A 29.84 1010 10 16 N/A
3:55 pm 15:55 Cloudy 73 23 63 17 69 69 N N/A 29.84 1010 10 16 N/A
4:15 pm 16:15 Mostly Cloudy 75 24 63 17 65 65 N N/A 29.83 1010 10 16 N/A
4:35 pm 16:35 Partly Cloudy 75 24 63 17 65 65 SSW 3 6 29.83 1010 10 16 N/A
4:55 pm 16:55 Partly Cloudy 77 25 64 18 65 65 N N/A 29.81 1010 10 16 N/A
5:15 pm 17:15 Mostly Cloudy 77 25 64 18 65 65 S 5 7 29.81 1010 10 16 N/A
5:35 pm 17:35 Mostly Cloudy 77 25 64 18 65 65 N N/A 29.81 1010 10 16 N/A
5:55 pm 17:55 Partly Cloudy 77 25 63 17 61 61 WNW 5 7 29.81 1010 10 16 N/A
6:15 pm 18:15 Sunny 77 25 64 18 65 65 WNW 3 6 29.80 1009 10 16 N/A
6:35 pm 18:35 Sunny 77 25 63 17 61 61 E 3 6 29.81 1010 10 16 N/A
6:55 pm 18:55 Partly Cloudy 77 25 64 18 65 65 SE 6 9 29.81 1010 10 16 N/A
7:15 pm 19:15 Sunny 75 24 66 19 74 74 E 5 7 29.82 1010 10 16 N/A
7:35 pm 19:35 Partly Cloudy 75 24 66 19 74 74 ENE 3 6 29.82 1010 10 16 N/A
7:55 pm 19:55 Mostly Cloudy 73 23 66 19 78 78 E 3 6 29.83 1010 10 16 N/A
8:15 pm 20:15 Cloudy with Rain 73 23 68 20 83 83 NE 5 7 29.85 1011 7 11 N/A
8:35 pm 20:35 Cloudy with Heavy Rain 70 21 68 20 94 94 N N/A 29.86 1011 5 8 0.12 3.05
8:55 pm 20:55 Cloudy with Light Rain 68 20 66 19 94 94 W 5 7 29.87 1012 10 16 0.13 3.30
9:15 pm 21:15 Cloudy 66 19 64 18 94 94 NW 3 6 29.88 1012 10 16 N/A
9:35 pm 21:35 Partly Cloudy 66 19 64 18 94 94 NNE 6 9 29.88 1012 10 16 N/A
9:55 pm 21:55 Clear 64 18 63 17 94 94 N 6 9 29.89 1012 10 16 N/A
10:15 pm 22:15 Clear 64 18 63 17 94 94 NNW 7 11 29.90 1013 10 16 N/A
10:35 pm 22:35 Clear 63 17 61 16 94 94 N 5 7 29.92 1013 10 16 N/A
10:55 pm 22:55 Clear 63 17 61 16 94 94 NNW 8 13 29.93 1013 10 16 N/A
11:15 pm 23:15 Partly Cloudy 63 17 59 15 88 88 N 9 15 29.93 1013 10 16 N/A
11:35 pm 23:35 Partly Cloudy 63 17 59 15 88 88 N 9 15 29.93 1013 10 16 N/A
11:55 pm 23:55 Partly Cloudy 63 17 59 15 88 88 N 8 13 29.94 1014 10 16 N/A

Powered by AerisWeather